Regional Weather Roundup
Issued by NWS State College, PA

Home | Current Version | Previous Version | Graphics & Text | Print | Product List | Glossary Off
Versions: 1 2 3 4 5 6 7 8 9 10 11 12 13 14 15 16 17 18 19 20 21 22 23 24 25 26 27 28 29 30 31 32 33 34 35 36 37 38 39 40 41 42 43 44 45 46 47 48 49 50

000
ASUS41 KCTP 310110
RWRCTP

REGIONAL WEATHER ROUNDUP
NATIONAL WEATHER SERVICE STATE COLLEGE PA
900 PM EDT WED JUL 30 2014

Note: "fair" indicates few or no clouds below 12,000 feet with no
significant weather and/or obstructions to visibility.

* = STATION THAT DOES NOT REPORT PRECIPITATION /E.G. RAIN...SNOW...ETC/
    THUNDER OR FOG.

PAZ002>004-007>009-013>016-020>023-029>032-310200-
WESTERN PENNSYLVANIA

CITY           SKY/WX    TMP DP  RH WIND       PRES   REMARKS
ERIE           CLEAR     67  58  72 CALM      30.00S
MEADVILLE      PTCLDY    63  59  87 CALM      30.03R
FRANKLIN*      MOCLDY    61  55  82 S6        30.06R
NEW CASTLE     MOCLDY    65  58  78 CALM      30.04S
BEAVER COUNTY  CLOUDY    64  55  72 S6        30.04S
BUTLER*        MOCLDY    64  55  72 S5        30.07R
PITTSBURGH INT MOCLDY    64  57  78 SW6       30.05R
PITTSBURGH     MOCLDY    63  54  72 SW8       30.05S
INDIANA*       MOCLDY    63  61  94 SW8       30.10R
LATROBE        MOCLDY    63  61  94 SW9       30.08R
WASHINGTON CO* MOCLDY    59  57  94 CALM      30.06F
$$

PAZ004>006-010>012-017>019-024>028-033>037-041-042-045-046-049>053-310200-
CENTRAL PENNSYLVANIA

CITY           SKY/WX    TMP DP  RH WIND       PRES   REMARKS
BRADFORD       CLEAR     58  55  90 SE3       30.06R
DUBOIS         MOCLDY    59  57  93 CALM      30.06R FOG
CLEARFIELD     CLOUDY    58  57  97 CALM      30.07R
JOHNSTOWN      CLOUDY    59  55  87 SW13      30.09R
ALTOONA        CLOUDY    63  60  90 CALM      30.08R
STATE COLLEGE  MOCLDY    57  57 100 CALM      30.07F
WILLIAMSPORT   LGT RAIN  61  56  83 W3        30.05R
SELINSGROVE    RAIN      61  59  93 CALM      30.09R FOG
FT INDIANTOWN  CLEAR     64  60  87 N1        30.05R
CAPITAL CITY   CLEAR     70  54  56 S5        30.04R
HARRISBURG     PTCLDY    72  56  57 SW7       30.04R
YORK           CLEAR     64  56  75 SW5       30.05R
$$

PAZ038>040-043-044-047-048-054-055-060>062-067>071-310200-
EASTERN PENNSYLVANIA

CITY           SKY/WX    TMP DP  RH WIND       PRES   REMARKS
SCRANTON       MOCLDY    68  52  56 S3        30.04R
MOUNT POCONO   CLEAR     63  53  70 SW6       30.08R
ALLENTOWN      CLEAR     65  54  67 SW5       30.05R
QUAKERTOWN*    CLEAR     64  57  77 CALM      30.06S
READING        CLEAR     72  54  53 S3        30.04R
LANCASTER      CLEAR     69  53  56 S3        30.05R
COATESVILLE    CLEAR     64  57  77 CALM      30.07R
POTTSTOWN      CLEAR     66  56  70 CALM      30.07R
BLUE BELL      CLEAR     64  59  82 CALM      30.05R
DOYLESTOWN     CLEAR     66  55  67 CALM      30.05R
WILLOW GROVE   NOT AVBL
NORTH PHILA    CLEAR     72  52  49 SW5       30.06R
PHILADELPHIA   PTCLDY    74  54  49 S8        30.05R
$$


USA.gov is the U.S. government's official web portal to all federal, state and local government web resources and services.